This demonstration page uses our WeatherBlox Daily Observations layout. Learn more.

Left ArrowRight Arrow

36.17497, -115.13722

Hourly Observations for June 1, 2021

Temp ( °F °C ) Dew Point ( °F °C ) Humidity (%) Winds ( mph kmh ) Pressure ( in mb ) Visibility ( mi km ) Precip ( " mm )
12:53 am 00:53 Clear 83 28.3 25 -3.9 12 12 WNW 3 6 29.84 1010 10 16 N/A
1:53 am 01:53 Clear 84 28.9 23 -5 10 10 N 5 7 29.84 1011 10 16 N/A
2:53 am 02:53 Clear 78 25.6 27 -2.8 15 15 NW 3 6 29.86 1011 10 16 N/A
3:53 am 03:53 Clear 81 27.2 21 -6.1 11 11 N 5 7 29.87 1011 10 16 N/A
4:53 am 04:53 Clear 78 25.6 20 -6.7 11 11 NW 5 7 29.88 1012 10 16 N/A
5:53 am 05:53 Sunny 75 23.9 20 -6.7 12 12 NW 6 9 29.90 1012 10 16 N/A
6:53 am 06:53 Sunny 80 26.7 25 -3.9 13 13 NNW 6 9 29.91 1013 10 16 N/A
7:53 am 07:53 Sunny 85 29.4 25 -3.9 11 11 N 3 6 29.92 1013 10 16 N/A
8:53 am 08:53 Sunny 89 31.7 34 1.1 14 14 NE 5 7 29.92 1013 10 16 N/A
9:53 am 09:53 Sunny 91 32.8 29 -1.7 11 11 N N/A 29.92 1013 10 16 N/A
10:53 am 10:53 Sunny 93 33.9 27 -2.8 9 9 VRB 5 7 29.91 1013 10 16 N/A
11:53 am 11:53 Sunny 95 35 26 -3.3 8 8 SE 3 6 29.88 1012 10 16 N/A
12:53 pm 12:53 Sunny 97 36.1 26 -3.3 8 8 VRB 3 6 29.86 1011 10 16 N/A
1:53 pm 13:53 Sunny 99 37.2 24 -4.4 7 7 N N/A 29.83 1010 10 16 N/A
2:53 pm 14:53 Sunny 101 38.3 24 -4.4 6 6 VRB 3 6 29.80 1009 10 16 N/A
3:53 pm 15:53 Sunny 102 38.9 22 -5.6 6 6 N N/A 29.77 1008 10 16 N/A
4:53 pm 16:53 Sunny 103 39.4 21 -6.1 5 5 SW 9 15 29.75 1007 10 16 N/A
5:53 pm 17:53 Sunny 102 38.9 21 -6.1 5 5 SW 5 7 29.73 1007 10 16 N/A
6:53 pm 18:53 Sunny 102 38.9 21 -6.1 5 5 WSW 6 9 29.73 1007 10 16 N/A
7:53 pm 19:53 Clear 100 37.8 21 -6.1 6 6 WSW 9 15 29.73 1007 10 16 N/A
8:53 pm 20:53 Clear 97 36.1 22 -5.6 7 7 WSW 9 15 29.74 1007 10 16 N/A
9:53 pm 21:53 Clear 95 35 23 -5 7 7 WSW 9 15 29.74 1007 10 16 N/A
10:53 pm 22:53 Clear 92 33.3 24 -4.4 8 8 N N/A 29.74 1007 10 16 N/A
11:53 pm 23:53 Clear 87 30.6 23 -5 9 9 NW 3 6 29.74 1007 10 16 N/A

Powered by AerisWeather